Regional Weather Roundup
Issued by NWS Kansas City/Pleasant Hill, MO

Home | Current Version | Previous Version | Graphics & Text | Print | Product List | Glossary Off
Versions: 1 2 3 4 5 6 7 8 9 10 11 12 13 14 15 16 17 18 19 20 21 22 23 24 25 26 27 28 29 30 31 32 33 34 35 36 37 38 39 40 41 42 43 44 45 46 47 48 49 50

000
ASUS43 KEAX 261610
RWREAX

WEATHER ROUNDUP FOR EASTERN KANSAS AND NORTHWEST MISSOURI
NATIONAL WEATHER SERVICE KANSAS CITY/PLEASANT HILL MO
1000 AM CST WED NOV 26 2014

KSZ040-057-103>105-MOZ028-029-037-043-261700-
...KANSAS CITY METROPOLITAN AREA...

CITY           SKY/WX    TMP DP  RH WIND       PRES   REMARKS
K.C. INTL      CLOUDY    41  33  73 NW17G25   29.96R WCI  32
K.C. DOWNTOWN  CLOUDY    43  32  65 NW13      29.97R
LEES SUMMIT    CLOUDY    41  33  73 W10G18    29.97R WCI  35
OLATHE - IXD   CLOUDY    42  33  70 NW16G25   29.99R WCI  34
OLATHE - OJC   PTSUNNY   42  32  67 NW14G25   29.98R WCI  35
LAWRENCE       PTSUNNY   42  31  64 NW22G31   30.01R WCI  33

$$

MOZ001>008-011>017-020>025-030>033-038>040-044>046-053-054-261700-
...NORTHERN AND CENTRAL MISSOURI...

CITY           SKY/WX    TMP DP  RH WIND       PRES   REMARKS
ST. JOSEPH     CLOUDY    40  33  76 NW23G33   29.97R WCI  30
MOSBY          CLOUDY    39  32  75 W8        29.97R WCI  34
WARRENSBURG    CLOUDY    41  34  75 W12       29.97R WCI  34
WHITEMAN AFB   PTSUNNY   41  35  79 W13       29.96R WCI  34
CLINTON        SUNNY     39  37  93 W9        29.99R WCI  33
SEDALIA        SUNNY     40  32  73 W13G20    29.96R WCI  32
WARSAW         NOT AVBL
MARSHALL       SUNNY     41  37  87 W9G16     29.95S
CHILLICOTHE      N/A     38  33  82 SW5       29.93R WCI  34
KIRKSVILLE     CLOUDY    31  31 100 S8        29.93R FOG     WCI  23

$$

MOZ041-047>049-056>058-063>065-088>090-097-261700-
...EASTERN AND SOUTHERN MISSOURI...

CITY           SKY/WX    TMP DP  RH WIND       PRES   REMARKS
ST. LOUIS INTL CLOUDY    34  27  75 SE12      30.04F WCI  25
SPIRIT OF STL  CLOUDY    32  26  78 SE7       30.02S WCI  26
COLUMBIA       CLOUDY    34  33  96 S5        29.96S WCI  30
JEFFERSON CITY CLOUDY    36  33  89 VRB3      29.98
ROLLA          SNOW      32  30  92 S8        29.96F VSB 1/2 WCI  25
LEBANON        CLOUDY    34  32  93 SW3       29.98S
OSAGE BEACH    CLOUDY    34  30  86 S6        29.98F WCI  29
SPRINGFIELD    MOSUNNY   38  34  85 W7        29.99S WCI  33
BRANSON        PTSUNNY   37  32  81 W5        30.02R WCI  34
NEVADA         SUNNY     43  34  70 NW16      30.03R
JOPLIN         SUNNY     45  30  55 W10       30.05R
WEST PLAINS    SNOW      31  27  85 CALM      30.02R VSB 1/2

$$

IAZ060-094-KSZ022-034>040-054-083-096-NEZ052-066-093-261700-
...KANSAS...SOUTHEAST NEBRASKA AND IOWA...

CITY           SKY/WX    TMP DP  RH WIND       PRES   REMARKS
TOPEKA         CLOUDY    44  30  57 NW20G29   30.03R
MANHATTAN      PTSUNNY   44  25  47 NW9G24    30.07R
EMPORIA        CLOUDY    45  25  45 NW16G30   30.06R
CHANUTE        MOSUNNY   47  28  47 NW21G31   30.05R
WICHITA        MOSUNNY   47  25  42 NW30G39   30.12R
OMAHA          CLOUDY    35  29  78 N28G37    30.01R WCI  22
LINCOLN        CLOUDY    32  25  75 NW26G36   30.08R WCI  18
FALLS CITY     CLOUDY    39  30  70 NW24G37   29.99R WCI  28
LAMONI         CLOUDY    35  32  88 W13       29.87R WCI  26
DES MOINES     LGT SNOW  30  26  85 E9        29.93R FOG     WCI  22

$$




USA.gov is the U.S. government's official web portal to all federal, state and local government web resources and services.